www.pogodaiklimat.ru

Погода и климат >> Архив погоды >> Канада >> Нунавут >> Мыс Пил-Вест


ПОГОДА на Мысе Пил-Вест

  • Прогноз погоды на Мысе Пил-Вест
  • Монитор погоды на Мысе Пил-Вест

АРХИВ ПОГОДЫ на Мысе Пил-Вест

Время (UTC), дата Ветер
(напр.,м/с)
 
Видим.   Явления Облачность Т
(С)
Тd
(С)
f
(%)
Тe
(С)
Тes
(С)
Комфортность P
(гПа)
Po
(гПа)
Тmin
(С)
Tmax
(С)
R
(мм)
R24
(мм)
S
(см)
03 12.03 СВ 5 н/о ясно -23.9 -27.2 74 -35 -35 опасность
обморожения
999.4 977.5
06 12.03 СВ 6 н/о ясно -24.9 -28.4 73 -37 -37 опасность
обморожения
999.1 977.2 -24.9 -16.6
09 12.03 В 2 н/о ясно -25.5 -29.0 72 -31 -31 опасность
обморожения
999.9 977.9
12 12.03 СВ 5 н/о ясно -24.6 -28.0 73 -35 -35 опасность
обморожения
1001.1 979.0
15 12.03 В 6 н/о ясно -23.0 -26.2 75 -34 -34 опасность
обморожения
1001.4 979.3
18 12.03 В 3 н/о ясно -20.7 -23.5 78 -28 -26 1002.3 980.2
21 12.03 СВ 3 н/о 9/9 100 м
[]
-19.5 -22.1 80 -26 -26 1003.9 981.8
00 13.03 С 2 н/о 9/9 50 м
[]
-23.1 -26.3 75 -28 -28 1005.1 982.9
03 13.03 С 5 н/о 10/10 50 м
[]
-22.6 -25.7 76 -33 -33 опасность
обморожения
1007.2 985.0
06 13.03 С 7 н/о 10/10 50 м
[]
-23.1 -26.3 75 -35 -35 опасность
обморожения
1008.9 986.8 -25.6 -18.4
09 13.03 С 8 н/о 10/10 50 м
[]
-21.4 -24.3 77 -34 -34 опасность
обморожения
1010.9 988.8
12 13.03 С 9 н/о 10/10 50 м
[]
-22.7 -25.9 75 -37 -37 опасность
обморожения
1013.3 991.0
15 13.03 С 10 н/о ясно -28.1 -32.0 69 -45 -45 опасность
обморожения
1015.8 993.3
18 13.03 С 11 н/о 10/0
[]
-28.5 -32.5 68 -45 -45 опасность
обморожения
1018.0 995.4
21 13.03 С 8 н/о 10/0
[]
-25.4 -28.9 72 -39 -39 опасность
обморожения
1020.4 997.9
00 14.03 С 6 н/о 10/10 1500 м
[]
-24.5 -27.9 73 -36 -36 опасность
обморожения
1022.6 1000.1
03 14.03 С 4 н/о 10/10 1000 м
[]
-24.4 -27.8 73 -34 -34 опасность
обморожения
1024.8 1002.1
06 14.03 С 4 н/о 10/0 2000 м
[]
-23.9 -27.2 74 -33 -33 опасность
обморожения
1025.7 1002.9 -28.9 -20.5
09 14.03 С 4 н/о 9/9 600 м
[]
-23.2 -26.5 74 -33 -33 опасность
обморожения
1027.1 1004.4
12 14.03 С 5 н/о 10/10 600 м
[]
-24.2 -27.6 73 -35 -35 опасность
обморожения
1027.6 1004.9
15 14.03 С 4 н/о 10/0
[]
-26.5 -30.1 72 -37 -37 опасность
обморожения
1028.5 1005.7
18 14.03 С 5 н/о ясно -29.0 -33.0 68 -41 -40 опасность
обморожения
1028.7 1005.9
21 14.03 СВ 4 н/о ясно -28.5 -32.5 68 -40 -38 опасность
обморожения
1029.3 1006.5
00 15.03 СВ 5 н/о ясно -30.0 -34.2 67 -43 -43 опасность
обморожения
1029.8 1006.9
03 15.03 СВ 5 н/о ясно -32.7 -37.2 64 -46 -46 опасность
обморожения
1029.8 1006.7
06 15.03 СВ 6 н/о ясно -33.7 -38.3 63 -48 -48 опасность
обморожения
1029.8 1006.6 -33.7 -23.2
09 15.03 СВ 4 н/о ясно -34.4 -39.1 62 -47 -47 опасность
обморожения
1029.8 1006.6
12 15.03 В 6 н/о ясно -33.5 -38.1 63 -48 -48 опасность
обморожения
1029.5 1006.3
15 15.03 В 6 н/о ясно -33.7 -38.4 62 -48 -48 опасность
обморожения
1029.4 1006.1
18 15.03 В 7 н/о ясно -30.6 -34.8 67 -45 -44 опасность
обморожения
1029.3 1006.1
21 15.03 В 6 н/о ясно -30.8 -35.1 66 -44 -43 опасность
обморожения
1029.1 1005.9
00 16.03 В 6 н/о ясно -31.7 -36.1 65 -46 -46 опасность
обморожения
1028.4 1005.2
03 16.03 В 7 н/о 10/0
[]
-32.0 -36.5 64 -47 -47 опасность
обморожения
1027.0 1003.8
06 16.03 В 7 н/о 10/0
[]
-30.8 -35.1 66 -45 -45 опасность
обморожения
1025.2 1002.2 -34.9 -29.6
09 16.03 В 9 н/о 10/0 2000 м
[]
-28.5 -32.6 68 -44 -44 опасность
обморожения
1023.2 1000.3
12 16.03 В 9 н/о 9/9 200 м
[]
-28.0 -32.0 68 -43 -43 опасность
обморожения
1021.3 998.4
15 16.03 В 8 н/о ясно -27.4 -31.2 70 -42 -42 опасность
обморожения
1019.9 997.1
18 16.03 В 7 н/о ясно -25.4 -29.0 72 -39 -38 опасность
обморожения
1019.0 996.3
21 16.03 СВ 6 н/о 5/5 100 м
[]
-23.5 -26.8 74 -36 -35 опасность
обморожения
1018.5 995.9
00 17.03 СВ 7 н/о 9/9 50 м
[]
-23.8 -27.1 74 -37 -37 опасность
обморожения
1018.5 995.9
03 17.03 СВ 10 н/о 9/9 50 м
[]
-26.7 -30.4 71 -43 -43 опасность
обморожения
1018.6 995.9
06 17.03 СВ 7 н/о 10/10 50 м
[]
-28.5 -32.5 68 -43 -43 опасность
обморожения
1019.8 997.1 -30.8 -23.2
09 17.03 СВ 9 н/о ясно -29.8 -33.9 67 -46 -46 опасность
обморожения
1020.5 997.8
12 17.03 СВ 9 н/о 3/3 1500 м
[]
-29.6 -33.7 67 -46 -46 опасность
обморожения
1021.6 998.9
15 17.03 СВ 8 н/о ясно -29.5 -33.6 67 -45 -44 опасность
обморожения
1022.5 999.7
18 17.03 СВ 8 н/о ясно -27.4 -31.2 70 -42 -42 опасность
обморожения
1022.9 1000.1
21 17.03 СВ 7 н/о ясно -26.0 -29.7 71 -39 -38 опасность
обморожения
1024.0 1001.2
00 18.03 В 7 н/о ясно -27.2 -31.0 70 -41 -41 опасность
обморожения
1023.9 1001.0
03 18.03 В 7 н/о 10/0
[]
-29.0 -33.0 68 -43 -43 опасность
обморожения
1023.4 1000.5
06 18.03 В 5 н/о 10/0
[]
-28.4 -32.4 68 -41 -41 опасность
обморожения
1021.5 998.7 -30.0 -25.0
09 18.03 В 6 н/о 10/10 50 м
[]
-26.4 -30.1 71 -39 -39 опасность
обморожения
1018.2 995.6
12 18.03 ЮВ 7 н/о 10/10 100 м
[]
-23.9 -27.2 74 -36 -36 опасность
обморожения
1013.6 991.1
15 18.03 В 7 н/о 9/9 600 м
[]
-21.0 -23.9 77 -33 -33 опасность
обморожения
1009.5 987.2
18 18.03 В 7 н/о 10/10 200 м
[]
-21.3 -24.3 77 -34 -34 опасность
обморожения
1007.2 984.9
21 18.03 СВ 10 н/о 10/10 100 м
[]
-20.1 -22.9 78 -34 -34 опасность
обморожения
1006.0 983.8
00 19.03 СВ 12 н/о 10/10 100 м
[]
-20.0 -22.8 78 -35 -35 опасность
обморожения
1007.0 984.9

 

Местоположение метеостанции Мыс Пил-Вест (Нунавут, Канада): широта 69.03 долгота -107.80 высота над уровнем моря 165 м.

В архиве по умолчанию представлена погода на Мысе Пил-Вест за последнюю неделю. Архивные данные за месяц целиком и за предыдущие месяцы, начиная с января 2011 года, Вы можете получить, выбрав интересующий диапазон дат из раскрывающегося списка и нажав кнопку "Ввод!".


*Определитесь, кто Вы:
робот инопланетянин человек

Внимание! Время в таблицах - всемирное. Для получения местного времени необходимо прибавить поправку, которая равна -7 ч.

Смотрите также архив погоды в соседних городах и на ближайших метеорологических станциях:

Погода в Кеймбридж-Бее (Нунавут, Канада) (108 км)
Погода в Кембридж Бэй (Нунавут, Канада) (108 км)
Погода на Острове Хат (Нунавут, Канада) (325 км)
Погода в Куглуктуке (Нунавут, Канада) (327 км)
Погода в Куглуктуке (Северо-Западные территории, Канада) (327 км)
Погода в Люпине (Нунавут, Канада) (390 км)
Погода в Саскатуне (Саскачеван, Канада) (390 км)
Погода в Аэропорту Холман (Северо-Западные территории, Канада) (427 км)
Погода на Реке Крокер (Нунавут, Канада) (451 км)
Погода в Джойа Хейвен (Нунавут, Канада) (481 км)

Пояснения к столбцам:

Ветер - указаны скорость ветра в м/с - средняя за 10 мин, порывы в срок и между сроками (в фигурных скобках) и направление, откуда дует ветер: С - северный, СВ - северо-восточный, В - восточный, ЮВ - юго-восточный, Ю - южный, ЮЗ - юго-западный, З - западный, СЗ - северо-западный.
Видимость - горизонтальная дальность видимости в метрах или километрах. При видимости от 1 до 10 км при отсутствии осадков обычно наблюдается дымка, при ухудшении видимости до 1 км и менее - туман. В сухую погоду видимость может ухудшаться дымом, пылью или мглою.
Явления - указаны атмосферные явления, наблюдавшиеся в срок или в последний час перед сроком; фигурными скобками обозначены явления, наблюдавшиеся между сроками (за 1-3 часа до срока); квадратными скобками обозначены град или гололедные отложения с указанием их диаметра в мм.
Облачность - указаны через наклонную черту общая и нижняя облачность в баллах и высота нижней границы облаков в метрах; квадратными скобками обозначены формы облаков: Ci - перистые, Cs - перисто-слоистые, Cc - перисто-кучевые, Ac - высококучевые, As - высокослоистые, Sc - слоисто-кучевые, Ns - слоисто-дождевые, Cu - кучевые, Cb - кучево-дождевые. Подробнее классификацию облаков см. в Атласе облаков (PDF).
T - Температура воздуха - температура, измеренная на высоте 2 м над землей.
Td - Температура точки росы - температура, при понижении до которой содержащийся в воздухе водяной пар достигнет насыщения.
f - Относительная влажность воздуха - влажноcть воздуха, измеренная на высоте 2 м над землей.
Te - Эффективная температура - температура, которую ощущает одетый по сезону человек в тени. Характеристика душности погоды. При расчете учитывается влияние влажности воздуха и скорости ветра на теплоощущения человека.
Tes - Эффективная температура на солнце - температура, которую ощущает человек, с поправкой на солнечный нагрев. Характеристика знойности погоды. Зависит от высоты солнца над горизонтом, облачности и скорости ветра. Ночью, в пасмурную погоду, а также при ветре 12 м/с и более поправка равна нулю.
P - Атмосферное давление - приведенное к уровню моря атмосферное давление.
Po - Атмосферное давление - измеренное на уровне метеостанции атмосферное давление.
Tmin - Минимальная температура - минимум температуры воздуха на высоте 2 м над землей.
Tmax - Максимальная температура - максимум температуры воздуха на высоте 2 м над землей.
R - Количество осадков - Количество выпавших осадков за период времени, мм. При наведении курсора мыши на число - период времени, за который выпало указанное количество осадков.
R24 - Количество осадков - Количество выпавших осадков за 24 часа, мм.
S - Снежный покров - Высота снежного покрова, см. При наведении курсора мыши на число - состояние снежного покрова и степень покрытия местности в баллах.